FW5429 Weather Reports


time (UTC)temp
C
wind
direction
speed
KPH
gust
KPH
rain 1hr
cm
rain 24hr
cm
rain mn
cm
humidity
%
barometer
mb
20260505014531 12 0 0.0 3.2 0.00 0.00 0.00 66 1007.2
20260505014009 12 0 0.0 3.2 0.00 0.00 0.00 65 1007.2
20260505013511 13 0 0.0 1.6 0.00 0.00 0.00 64 1007.3
20260505013026 13 0 0.0 1.6 0.00 0.00 0.00 63 1007.1
20260505012510 13 0 0.0 1.6 0.00 0.00 0.00 62 1007.1
20260505012013 13 267 0.0 1.6 0.00 0.00 0.00 59 1007.0
20260505011526 13 0 0.0 1.6 0.00 0.00 0.00 58 1006.8
20260505011011 13 0 0.0 3.2 0.00 0.00 0.00 57 1006.8
20260505010508 13 0 0.0 3.2 0.00 0.00 0.00 57 1006.6
20260505010026 13 267 0.0 3.2 0.00 0.00 0.00 56 1006.6
20260505005508 14 0 0.0 1.6 0.00 0.00 0.00 55 1006.4
20260505005009 14 0 0.0 1.6 0.00 0.00 0.00 53 1006.4
20260505004539 15 0 0.0 0.0 0.00 0.00 0.00 52 1006.3
20260505004010 15 0 0.0 0.0 0.00 0.00 0.00 51 1006.3
20260505003510 15 0 0.0 0.0 0.00 0.00 0.00 50 1006.3
20260505003028 16 0 0.0 0.0 0.00 0.00 0.00 49 1006.1
20260505002508 16 0 0.0 0.0 0.00 0.00 0.00 48 1006.0
20260505002010 16 0 0.0 0.0 0.00 0.00 0.00 47 1005.9
20260505001526 17 0 0.0 0.0 0.00 0.00 0.00 46 1005.8
20260505001013 17 0 0.0 0.0 0.00 0.00 0.00 45 1005.7
20260505000507 17 0 0.0 0.0 0.00 0.00 0.00 43 1005.7
20260505000027 17 0 0.0 0.0 0.00 0.00 0.00 43 1005.5
20260504235508 18 0 0.0 0.0 0.00 0.00 0.00 41 1005.5
20260504235010 18 0 0.0 0.0 0.00 0.00 0.00 40 1005.5
20260504234533 18 0 0.0 3.2 0.00 0.00 0.00 38 1005.5
20260504234008 19 0 0.0 3.2 0.00 0.00 0.00 37 1005.5
20260504233509 20 0 0.0 3.2 0.00 0.00 0.00 37 1005.5
20260504233029 20 0 0.0 3.2 0.00 0.00 0.00 35 1005.3
20260504232511 20 281 0.0 3.2 0.00 0.00 0.00 35 1005.3
20260504232008 20 0 0.0 8.0 0.00 0.00 0.00 34 1005.1
20260504231538 20 0 0.0 8.0 0.00 0.00 0.00 34 1005.0
20260504231010 20 0 0.0 8.0 0.00 0.00 0.00 33 1005.0
20260504230509 20 234 1.6 14.5 0.00 0.00 0.00 33 1004.8
20260504230028 21 0 3.2 14.5 0.00 0.00 0.00 32 1004.8
20260504225513 21 256 1.6 11.3 0.00 0.00 0.00 32 1004.9
20260504225011 21 200 1.6 11.3 0.00 0.00 0.00 32 1004.8
20260504224528 20 0 1.6 11.3 0.00 0.00 0.00 33 1004.8
20260504224009 21 245 0.0 11.3 0.00 0.00 0.00 33 1004.7
20260504223510 21 219 3.2 11.3 0.00 0.00 0.00 32 1004.8
20260504223028 21 237 1.6 8.0 0.00 0.00 0.00 32 1004.7
20260504222512 21 227 0.0 9.7 0.00 0.00 0.00 32 1004.6
20260504222011 21 225 1.6 9.7 0.00 0.00 0.00 32 1004.5
20260504221526 21 0 1.6 9.7 0.00 0.00 0.00 31 1004.5
20260504221009 21 38 1.6 8.0 0.00 0.00 0.00 31 1004.6
20260504220028 21 205 3.2 14.5 0.00 0.00 0.00 31 1004.5
20260504215513 21 105 1.6 14.5 0.00 0.00 0.00 32 1004.5
20260504215012 21 28 1.6 11.3 0.00 0.00 0.00 31 1004.3
20260504214534 21 0 0.0 11.3 0.00 0.00 0.00 33 1004.6
20260504214012 21 265 3.2 11.3 0.00 0.00 0.00 32 1004.5
20260504213511 21 315 1.6 12.9 0.00 0.00 0.00 31 1004.6
20260504213030 22 299 3.2 12.9 0.00 0.00 0.00 30 1004.5
20260504212511 22 245 3.2 16.1 0.00 0.00 0.00 30 1004.5
20260504212011 22 189 3.2 16.1 0.00 0.00 0.00 30 1004.4
20260504211524 22 233 6.4 16.1 0.00 0.00 0.00 30 1004.5
20260504211010 21 264 3.2 14.5 0.00 0.00 0.00 30 1004.4
20260504210513 21 246 4.8 14.5 0.00 0.00 0.00 31 1004.4
20260504210026 21 214 3.2 19.3 0.00 0.00 0.00 30 1004.4
20260504205012 22 0 3.2 12.9 0.00 0.00 0.00 31 1004.3
20260504204551 22 279 4.8 12.9 0.00 0.00 0.00 30 1004.3
20260504204012 22 123 3.2 17.7 0.00 0.00 0.00 30 1004.4
20260504203514 22 258 4.8 17.7 0.00 0.00 0.00 31 1004.3
20260504203030 22 187 4.8 19.3 0.00 0.00 0.00 30 1004.5
20260504202510 22 128 4.8 22.5 0.00 0.00 0.00 30 1004.4
20260504202011 22 111 8.0 22.5 0.00 0.00 0.00 29 1004.5
20260504201525 22 227 4.8 14.5 0.00 0.00 0.00 29 1004.4
20260504201010 22 360 4.8 20.9 0.00 0.00 0.00 29 1004.3
20260504200511 22 207 4.8 20.9 0.00 0.00 0.00 29 1004.2
20260504200030 22 254 6.4 20.9 0.00 0.00 0.00 29 1004.4
20260504195512 22 234 8.0 17.7 0.00 0.00 0.00 29 1004.4
20260504195007 21 132 6.4 19.3 0.00 0.00 0.00 30 1004.5
20260504194530 21 142 4.8 27.4 0.00 0.00 0.00 31 1004.3
20260504194011 21 209 4.8 27.4 0.00 0.00 0.00 31 1004.5
20260504193507 21 202 8.0 27.4 0.00 0.00 0.00 30 1004.5
20260504193028 21 188 4.8 19.3 0.00 0.00 0.00 30 1004.4
20260504192511 21 215 8.0 19.3 0.00 0.00 0.00 31 1004.6
20260504192012 20 252 3.2 17.7 0.00 0.00 0.00 32 1004.6
20260504191529 20 347 4.8 22.5 0.00 0.00 0.00 32 1004.8
20260504191011 20 234 4.8 25.7 0.00 0.00 0.00 32 1004.9
20260504190511 20 249 6.4 25.7 0.00 0.00 0.00 32 1004.9
20260504190034 20 209 3.2 16.1 0.00 0.00 0.00 32 1004.7
20260504185514 20 227 1.6 16.1 0.00 0.00 0.00 32 1004.8
20260504185012 20 216 4.8 17.7 0.00 0.00 0.00 32 1004.8
20260504184527 20 248 3.2 17.7 0.00 0.00 0.00 31 1004.9
20260504184017 20 256 4.8 19.3 0.00 0.00 0.00 31 1004.7
20260504183030 20 200 4.8 24.1 0.00 0.00 0.00 32 1004.8
20260504182507 20 202 4.8 24.1 0.00 0.00 0.00 31 1004.7
20260504182013 20 148 4.8 17.7 0.00 0.00 0.00 32 1004.8
20260504181526 20 232 4.8 24.1 0.00 0.00 0.00 30 1004.7
20260504181011 21 250 8.0 24.1 0.00 0.00 0.00 30 1004.8
20260504180512 20 210 4.8 14.5 0.00 0.00 0.00 30 1004.6
20260504180028 20 238 3.2 24.1 0.00 0.00 0.00 32 1004.6
20260504175511 20 205 6.4 24.1 0.00 0.00 0.00 30 1004.7
20260504175011 20 244 8.0 24.1 0.00 0.00 0.00 29 1004.7
20260504174526 21 140 8.0 22.5 0.00 0.00 0.00 28 1004.7
20260504174012 20 209 4.8 20.9 0.00 0.00 0.00 30 1004.8
20260504173508 20 281 4.8 17.7 0.00 0.00 0.00 29 1005.0
20260504173028 21 289 6.4 27.4 0.00 0.00 0.00 28 1005.0
20260504171539 21 221 9.7 25.7 0.00 0.00 0.00 27 1005.1
20260504171011 21 351 8.0 27.4 0.00 0.00 0.00 28 1005.0
20260504170508 21 204 6.4 27.4 0.00 0.00 0.00 30 1005.0
20260504151011 18 273 4.8 16.1 0.00 0.00 0.00 39 1006.2
20260504150515 18 225 3.2 12.9 0.00 0.00 0.00 39 1006.4
20260504141013 16 191 3.2 17.7 0.00 0.00 0.00 44 1007.3
20260504140517 15 206 4.8 25.7 0.00 0.00 0.00 44 1007.4
20260504130510 13 198 3.2 9.7 0.00 0.00 0.00 50 1008.0
20260504110509 7 197 3.2 14.5 0.00 0.00 0.00 64 1008.7
20260504100510 2 0 0.0 0.0 0.00 0.00 0.00 80 1008.6
20260504082007 3 0 0.0 0.0 0.00 0.00 0.00 77 1008.6
20260504081530 3 0 0.0 1.6 0.00 0.00 0.00 77 1008.7
20260504081009 3 0 0.0 3.2 0.00 0.00 0.00 78 1008.6
20260504080512 3 267 0.0 3.2 0.00 0.00 0.00 79 1008.7
20260504050508 1 0 0.0 1.6 0.00 0.00 0.00 84 1008.6
20260504045511 1 0 0.0 1.6 0.00 0.00 0.00 83 1008.5
20260504045008 1 0 0.0 1.6 0.00 0.00 0.00 83 1008.4
20260504044539 1 0 0.0 1.6 0.00 0.00 0.00 83 1008.5
20260504044013 1 0 0.0 1.6 0.00 0.00 0.00 83 1008.5
20260504043510 1 0 0.0 1.6 0.00 0.00 0.00 83 1008.5
20260504043030 1 0 0.0 1.6 0.00 0.00 0.00 83 1008.4
20260504042509 1 0 0.0 1.6 0.00 0.00 0.00 83 1008.6
20260504042008 1 0 0.0 1.6 0.00 0.00 0.00 83 1008.4
20260504041530 1 0 0.0 1.6 0.00 0.00 0.00 83 1008.4
20260504041013 1 0 0.0 0.0 0.00 0.00 0.00 82 1008.3
20260504040513 1 0 0.0 0.0 0.00 0.00 0.00 82 1008.3
20260504040028 1 0 0.0 0.0 0.00 0.00 0.00 82 1008.3
20260504035510 1 0 0.0 0.0 0.00 0.00 0.00 82 1008.3
20260504035011 1 0 0.0 0.0 0.00 0.00 0.00 82 1008.2
20260504034528 1 0 0.0 0.0 0.00 0.00 0.00 81 1008.2
20260504034008 1 0 0.0 1.6 0.00 0.00 0.00 81 1008.1
20260504033512 2 0 0.0 1.6 0.00 0.00 0.00 81 1008.2
20260504033031 2 0 0.0 1.6 0.00 0.00 0.00 81 1008.2
20260504032508 2 0 0.0 1.6 0.00 0.00 0.00 81 1008.1
20260504032015 2 0 0.0 1.6 0.00 0.00 0.00 80 1008.0
20260504031530 2 0 0.0 1.6 0.00 0.00 0.00 80 1008.1
20260504031010 2 0 0.0 1.6 0.00 0.00 0.00 79 1007.8
20260504030510 2 0 0.0 0.0 0.00 0.00 0.00 79 1007.9
20260504030038 2 0 0.0 0.0 0.00 0.00 0.00 78 1007.9
20260504025509 2 0 0.0 0.0 0.00 0.08 0.00 78 1007.9
20260504025013 2 0 0.0 0.0 0.00 0.08 0.00 77 1007.9
20260504024617 3 0 0.0 1.6 0.00 0.08 0.00 77 1007.9
20260504024009 3 0 0.0 1.6 0.00 0.08 0.00 76 1007.9
20260504023510 3 0 0.0 1.6 0.00 0.08 0.00 75 1007.9
20260504023032 3 0 0.0 1.6 0.00 0.08 0.00 74 1007.9
20260504022507 3 0 0.0 1.6 0.00 0.08 0.00 74 1007.9
20260504022008 3 0 0.0 1.6 0.00 0.08 0.00 73 1007.9
20260504021533 3 0 0.0 0.0 0.00 0.08 0.00 72 1007.9
20260504021008 4 0 0.0 0.0 0.00 0.08 0.00 70 1007.9
20260504020508 4 0 0.0 0.0 0.00 0.08 0.00 69 1007.9
20260504020030 4 0 0.0 0.0 0.00 0.08 0.00 68 1008.0
20260504015511 5 0 0.0 0.0 0.00 0.10 0.00 67 1008.0
20260504015011 5 0 0.0 0.0 0.00 0.10 0.00 66 1008.0